Track GONETS D1 3 now! 10-day predictions GONETS D1 3 is classified as:
1 23789U 96009C 24325.93704014 .00000029 00000-0 10486-3 0 9990 2 23789 82.5773 325.8593 0004164 289.0987 70.9653 12.62662050325309